PRIVATE WETTERSTATION BILLIGHEIM-ALLFELD                       ZURCK
Wetterdaten: Mittwoch, 01.11.2017
Datum Zeit Temp. A. Temp. A. min Temp. A. max Feuchte A. Luftdruck Regen Wind Richtung Richtung Sonnenschein ET Solar Taupunkt Windchill Windben Empfang
01.11.2017 00:00 4,9 C 4,9 C 4,9 C 90 % 1025,5 hPa 0,0 l/m 3,2 km/h (1 Bft) SW 225 0 min 0,000 mm 0 W/m 3,4 C 4,9 C 4,8 km/h (1 Bft) 99 %
01.11.2017 00:10 4,9 C 4,9 C 4,9 C 90 % 1025,5 hPa 0,0 l/m 3,2 km/h (1 Bft) SW 225 0 min 0,000 mm 0 W/m 3,4 C 4,9 C 6,4 km/h (2 Bft) 79 %
01.11.2017 00:20 4,9 C 4,9 C 4,9 C 89 % 1025,5 hPa 0,0 l/m 3,2 km/h (1 Bft) SW 225 0 min 0,000 mm 0 W/m 3,2 C 4,9 C 4,8 km/h (1 Bft) 100 %
01.11.2017 00:30 5,0 C 4,9 C 5,0 C 89 % 1025,5 hPa 0,0 l/m 3,2 km/h (1 Bft) SW 225 0 min 0,000 mm 0 W/m 3,3 C 5,0 C 4,8 km/h (1 Bft) 100 %
01.11.2017 00:40 5,1 C 5,0 C 5,1 C 89 % 1025,5 hPa 0,0 l/m 3,2 km/h (1 Bft) SW 225 0 min 0,000 mm 0 W/m 3,4 C 5,1 C 4,8 km/h (1 Bft) 100 %
01.11.2017 00:50 5,1 C 5,1 C 5,1 C 89 % 1025,5 hPa 0,0 l/m 1,6 km/h (1 Bft) SW 225 0 min 0,000 mm 0 W/m 3,4 C 5,1 C 4,8 km/h (1 Bft) 99 %
01.11.2017 01:00 5,1 C 5,1 C 5,1 C 89 % 1025,4 hPa 0,0 l/m 1,6 km/h (1 Bft) SW 225 0 min 0,000 mm 0 W/m 3,4 C 5,1 C 4,8 km/h (1 Bft) 100 %
01.11.2017 01:10 5,1 C 5,1 C 5,1 C 89 % 1025,4 hPa 0,0 l/m 1,6 km/h (1 Bft) SW 225 0 min 0,000 mm 0 W/m 3,4 C 5,1 C 6,4 km/h (2 Bft) 100 %
01.11.2017 01:20 5,1 C 5,1 C 5,1 C 89 % 1025,2 hPa 0,0 l/m 3,2 km/h (1 Bft) SW 225 0 min 0,000 mm 0 W/m 3,4 C 5,1 C 6,4 km/h (2 Bft) 100 %
01.11.2017 01:30 5,1 C 5,1 C 5,1 C 89 % 1025,2 hPa 0,0 l/m 1,6 km/h (1 Bft) SW 225 0 min 0,000 mm 0 W/m 3,4 C 5,1 C 4,8 km/h (1 Bft) 100 %
01.11.2017 01:40 5,1 C 5,1 C 5,1 C 88 % 1025,2 hPa 0,0 l/m 1,6 km/h (1 Bft) SW 225 0 min 0,000 mm 0 W/m 3,3 C 5,1 C 4,8 km/h (1 Bft) 100 %
01.11.2017 01:50 5,1 C 5,1 C 5,1 C 88 % 1025,1 hPa 0,0 l/m 3,2 km/h (1 Bft) SW 225 0 min 0,000 mm 0 W/m 3,3 C 5,1 C 4,8 km/h (1 Bft) 100 %
01.11.2017 02:00 5,1 C 5,1 C 5,1 C 89 % 1025,1 hPa 0,0 l/m 1,6 km/h (1 Bft) SW 225 0 min 0,000 mm 0 W/m 3,4 C 5,1 C 4,8 km/h (1 Bft) 100 %
01.11.2017 02:10 5,1 C 5,1 C 5,1 C 89 % 1025,0 hPa 0,0 l/m 1,6 km/h (1 Bft) SW 225 0 min 0,000 mm 0 W/m 3,4 C 5,1 C 4,8 km/h (1 Bft) 100 %
01.11.2017 02:20 5,1 C 5,1 C 5,1 C 89 % 1025,2 hPa 0,0 l/m 1,6 km/h (1 Bft) SW 225 0 min 0,000 mm 0 W/m 3,4 C 5,1 C 4,8 km/h (1 Bft) 100 %
01.11.2017 02:30 5,1 C 5,1 C 5,1 C 89 % 1025,2 hPa 0,0 l/m 0,0 km/h (0 Bft) SW 225 0 min 0,000 mm 0 W/m 3,4 C 5,1 C 3,2 km/h (1 Bft) 100 %
01.11.2017 02:40 5,1 C 5,1 C 5,2 C 89 % 1025,1 hPa 0,0 l/m 0,0 km/h (0 Bft) N 0 0 min 0,000 mm 0 W/m 3,4 C 5,1 C 0,0 km/h (0 Bft) 100 %
01.11.2017 02:50 5,1 C 5,1 C 5,2 C 89 % 1025,2 hPa 0,0 l/m 0,0 km/h (0 Bft) N 0 0 min 0,000 mm 0 W/m 3,4 C 5,1 C 0,0 km/h (0 Bft) 100 %
01.11.2017 03:00 5,2 C 5,1 C 5,2 C 89 % 1024,9 hPa 0,0 l/m 0,0 km/h (0 Bft) SW 225 0 min 0,000 mm 0 W/m 3,5 C 5,2 C 1,6 km/h (1 Bft) 100 %
01.11.2017 03:10 5,1 C 5,1 C 5,2 C 89 % 1024,8 hPa 0,0 l/m 0,0 km/h (0 Bft) SW 225 0 min 0,000 mm 0 W/m 3,4 C 5,1 C 3,2 km/h (1 Bft) 100 %
01.11.2017 03:20 5,1 C 5,1 C 5,1 C 89 % 1024,8 hPa 0,0 l/m 1,6 km/h (1 Bft) SW 225 0 min 0,000 mm 0 W/m 3,4 C 5,1 C 4,8 km/h (1 Bft) 100 %
01.11.2017 03:30 5,1 C 5,1 C 5,2 C 89 % 1024,7 hPa 0,0 l/m 3,2 km/h (1 Bft) SW 225 0 min 0,000 mm 0 W/m 3,4 C 5,1 C 6,4 km/h (2 Bft) 99 %
01.11.2017 03:40 5,2 C 5,1 C 5,2 C 89 % 1024,7 hPa 0,0 l/m 4,8 km/h (1 Bft) S-SW 202 0 min 0,000 mm 0 W/m 3,5 C 5,2 C 8,0 km/h (2 Bft) 100 %
01.11.2017 03:50 5,2 C 5,2 C 5,2 C 89 % 1024,7 hPa 0,0 l/m 3,2 km/h (1 Bft) S-SW 202 0 min 0,000 mm 0 W/m 3,5 C 5,2 C 8,0 km/h (2 Bft) 100 %
01.11.2017 04:00 5,2 C 5,2 C 5,2 C 89 % 1024,6 hPa 0,0 l/m 3,2 km/h (1 Bft) S 180 0 min 0,000 mm 0 W/m 3,5 C 5,2 C 6,4 km/h (2 Bft) 100 %
01.11.2017 04:10 5,2 C 5,2 C 5,2 C 89 % 1024,6 hPa 0,0 l/m 4,8 km/h (1 Bft) S 180 0 min 0,000 mm 0 W/m 3,5 C 5,2 C 9,7 km/h (2 Bft) 100 %
01.11.2017 04:20 5,2 C 5,2 C 5,2 C 89 % 1024,4 hPa 0,0 l/m 4,8 km/h (1 Bft) S-SO 157 0 min 0,000 mm 0 W/m 3,5 C 5,2 C 9,7 km/h (2 Bft) 100 %
01.11.2017 04:30 5,2 C 5,2 C 5,2 C 89 % 1024,6 hPa 0,0 l/m 3,2 km/h (1 Bft) S-SO 157 0 min 0,000 mm 0 W/m 3,5 C 5,2 C 8,0 km/h (2 Bft) 100 %
01.11.2017 04:40 5,2 C 5,2 C 5,2 C 90 % 1024,6 hPa 0,0 l/m 3,2 km/h (1 Bft) S-SO 157 0 min 0,000 mm 0 W/m 3,7 C 5,2 C 6,4 km/h (2 Bft) 100 %
01.11.2017 04:50 5,1 C 5,1 C 5,2 C 89 % 1024,4 hPa 0,0 l/m 3,2 km/h (1 Bft) S-SO 157 0 min 0,000 mm 0 W/m 3,4 C 5,1 C 6,4 km/h (2 Bft) 100 %
01.11.2017 05:00 5,1 C 5,1 C 5,2 C 90 % 1024,4 hPa 0,0 l/m 1,6 km/h (1 Bft) S-SO 157 0 min 0,000 mm 0 W/m 3,6 C 5,1 C 6,4 km/h (2 Bft) 100 %
01.11.2017 05:10 5,1 C 5,1 C 5,2 C 90 % 1024,3 hPa 0,0 l/m 1,6 km/h (1 Bft) S-SO 157 0 min 0,000 mm 0 W/m 3,6 C 5,1 C 6,4 km/h (2 Bft) 100 %
01.11.2017 05:20 5,2 C 5,1 C 5,2 C 90 % 1024,2 hPa 0,0 l/m 3,2 km/h (1 Bft) S-SO 157 0 min 0,000 mm 0 W/m 3,7 C 5,2 C 6,4 km/h (2 Bft) 100 %
01.11.2017 05:30 5,2 C 5,1 C 5,2 C 90 % 1024,2 hPa 0,0 l/m 3,2 km/h (1 Bft) S 180 0 min 0,000 mm 0 W/m 3,7 C 5,2 C 6,4 km/h (2 Bft) 100 %
01.11.2017 05:40 5,1 C 5,1 C 5,2 C 90 % 1024,2 hPa 0,0 l/m 3,2 km/h (1 Bft) S 180 0 min 0,000 mm 0 W/m 3,6 C 5,1 C 6,4 km/h (2 Bft) 100 %
01.11.2017 05:50 5,1 C 5,1 C 5,1 C 90 % 1024,1 hPa 0,0 l/m 1,6 km/h (1 Bft) S 180 0 min 0,000 mm 0 W/m 3,6 C 5,1 C 4,8 km/h (1 Bft) 99 %
01.11.2017 06:00 5,1 C 5,1 C 5,1 C 90 % 1024,1 hPa 0,0 l/m 3,2 km/h (1 Bft) S 180 0 min 0,000 mm 0 W/m 3,6 C 5,1 C 4,8 km/h (1 Bft) 100 %
01.11.2017 06:10 5,1 C 5,1 C 5,1 C 90 % 1024,1 hPa 0,0 l/m 1,6 km/h (1 Bft) S 180 0 min 0,000 mm 0 W/m 3,6 C 5,1 C 6,4 km/h (2 Bft) 100 %
01.11.2017 06:20 5,1 C 5,1 C 5,1 C 90 % 1024,0 hPa 0,0 l/m 3,2 km/h (1 Bft) S-SO 157 0 min 0,000 mm 0 W/m 3,6 C 5,1 C 8,0 km/h (2 Bft) 100 %
01.11.2017 06:30 5,1 C 5,1 C 5,1 C 90 % 1024,0 hPa 0,0 l/m 3,2 km/h (1 Bft) S-SO 157 0 min 0,000 mm 0 W/m 3,6 C 5,1 C 8,0 km/h (2 Bft) 100 %
01.11.2017 06:40 5,1 C 5,1 C 5,1 C 90 % 1024,1 hPa 0,0 l/m 3,2 km/h (1 Bft) S-SO 157 0 min 0,000 mm 0 W/m 3,6 C 5,1 C 8,0 km/h (2 Bft) 100 %
01.11.2017 06:50 5,1 C 5,1 C 5,1 C 90 % 1023,9 hPa 0,0 l/m 4,8 km/h (1 Bft) S-SO 157 0 min 0,000 mm 0 W/m 3,6 C 5,1 C 8,0 km/h (2 Bft) 100 %
01.11.2017 07:00 5,1 C 5,1 C 5,1 C 90 % 1023,8 hPa 0,0 l/m 6,4 km/h (2 Bft) S-SO 157 0 min 0,000 mm 0 W/m 3,6 C 5,1 C 11,3 km/h (2 Bft) 99 %
01.11.2017 07:10 5,1 C 5,1 C 5,1 C 90 % 1024,0 hPa 0,2 l/m 4,8 km/h (1 Bft) S-SO 157 0 min 0,000 mm 0 W/m 3,6 C 5,1 C 9,7 km/h (2 Bft) 100 %
01.11.2017 07:20 5,1 C 5,1 C 5,1 C 90 % 1024,1 hPa 0,0 l/m 3,2 km/h (1 Bft) S-SO 157 0 min 0,000 mm 0 W/m 3,6 C 5,1 C 6,4 km/h (2 Bft) 100 %
01.11.2017 07:30 5,1 C 5,1 C 5,1 C 90 % 1024,3 hPa 0,0 l/m 1,6 km/h (1 Bft) S-SO 157 0 min 0,000 mm 5 W/m 3,6 C 5,1 C 4,8 km/h (1 Bft) 100 %
01.11.2017 07:40 5,1 C 5,1 C 5,1 C 90 % 1024,2 hPa 0,0 l/m 1,6 km/h (1 Bft) S-SO 157 0 min 0,000 mm 9 W/m 3,6 C 5,1 C 4,8 km/h (1 Bft) 100 %
01.11.2017 07:50 5,2 C 5,1 C 5,2 C 90 % 1024,4 hPa 0,0 l/m 0,0 km/h (0 Bft) S-SO 157 0 min 0,000 mm 14 W/m 3,7 C 5,2 C 4,8 km/h (1 Bft) 100 %
01.11.2017 08:00 5,2 C 5,2 C 5,2 C 90 % 1024,5 hPa 0,0 l/m 1,6 km/h (1 Bft) S-SO 157 0 min 0,000 mm 25 W/m 3,7 C 5,2 C 6,4 km/h (2 Bft) 100 %
01.11.2017 08:10 5,3 C 5,2 C 5,3 C 90 % 1024,4 hPa 0,0 l/m 0,0 km/h (0 Bft) N 0 0 min 0,000 mm 39 W/m 3,8 C 5,3 C 0,0 km/h (0 Bft) 100 %
01.11.2017 08:20 5,4 C 5,3 C 5,4 C 90 % 1024,5 hPa 0,0 l/m 0,0 km/h (0 Bft) N 0 0 min 0,000 mm 42 W/m 3,9 C 5,4 C 0,0 km/h (0 Bft) 100 %
01.11.2017 08:30 5,4 C 5,4 C 5,4 C 90 % 1024,6 hPa 0,0 l/m 0,0 km/h (0 Bft) N 0 0 min 0,000 mm 95 W/m 3,9 C 5,4 C 0,0 km/h (0 Bft) 100 %
01.11.2017 08:40 5,7 C 5,4 C 5,7 C 90 % 1024,7 hPa 0,0 l/m 0,0 km/h (0 Bft) S-SO 157 0 min 0,000 mm 109 W/m 4,2 C 5,7 C 3,2 km/h (1 Bft) 100 %
01.11.2017 08:50 5,8 C 5,7 C 5,8 C 90 % 1024,8 hPa 0,0 l/m 1,6 km/h (1 Bft) S-SO 157 0 min 0,000 mm 81 W/m 4,3 C 5,8 C 6,4 km/h (2 Bft) 100 %
01.11.2017 09:00 5,9 C 5,8 C 5,9 C 90 % 1024,7 hPa 0,0 l/m 1,6 km/h (1 Bft) S-SO 157 0 min 0,025 mm 49 W/m 4,4 C 5,9 C 4,8 km/h (1 Bft) 100 %
01.11.2017 09:10 5,9 C 5,9 C 5,9 C 90 % 1024,6 hPa 0,0 l/m 0,0 km/h (0 Bft) S 180 0 min 0,000 mm 53 W/m 4,4 C 5,9 C 3,2 km/h (1 Bft) 100 %
01.11.2017 09:20 6,0 C 5,9 C 6,0 C 90 % 1024,7 hPa 0,0 l/m 1,6 km/h (1 Bft) S 180 0 min 0,000 mm 58 W/m 4,5 C 6,0 C 4,8 km/h (1 Bft) 100 %
01.11.2017 09:30 6,1 C 6,0 C 6,1 C 90 % 1024,7 hPa 0,0 l/m 0,0 km/h (0 Bft) N 0 0 min 0,000 mm 67 W/m 4,6 C 6,1 C 0,0 km/h (0 Bft) 89 %
01.11.2017 09:40 6,1 C 6,1 C 6,1 C 91 % 1024,7 hPa 0,0 l/m 1,6 km/h (1 Bft) S 180 0 min 0,000 mm 100 W/m 4,7 C 6,1 C 4,8 km/h (1 Bft) 100 %
01.11.2017 09:50 6,2 C 6,1 C 6,2 C 90 % 1024,7 hPa 0,0 l/m 1,6 km/h (1 Bft) S 180 0 min 0,000 mm 125 W/m 4,7 C 6,2 C 6,4 km/h (2 Bft) 100 %
01.11.2017 10:00 6,3 C 6,2 C 6,3 C 90 % 1024,8 hPa 0,0 l/m 1,6 km/h (1 Bft) S 180 0 min 0,025 mm 109 W/m 4,8 C 6,3 C 4,8 km/h (1 Bft) 100 %
01.11.2017 10:10 6,4 C 6,3 C 6,4 C 90 % 1024,8 hPa 0,0 l/m 3,2 km/h (1 Bft) S 180 0 min 0,000 mm 104 W/m 4,9 C 6,4 C 6,4 km/h (2 Bft) 100 %
01.11.2017 10:20 6,6 C 6,4 C 6,6 C 90 % 1024,8 hPa 0,0 l/m 3,2 km/h (1 Bft) S 180 0 min 0,000 mm 121 W/m 5,1 C 6,6 C 6,4 km/h (2 Bft) 100 %
01.11.2017 10:30 6,7 C 6,6 C 6,7 C 90 % 1024,7 hPa 0,0 l/m 3,2 km/h (1 Bft) S 180 0 min 0,000 mm 141 W/m 5,2 C 6,7 C 8,0 km/h (2 Bft) 100 %
01.11.2017 10:40 6,7 C 6,7 C 6,7 C 89 % 1024,6 hPa 0,0 l/m 3,2 km/h (1 Bft) S 180 10 min 0,000 mm 216 W/m 5,0 C 6,7 C 8,0 km/h (2 Bft) 100 %
01.11.2017 10:50 7,2 C 6,7 C 7,2 C 90 % 1024,7 hPa 0,0 l/m 4,8 km/h (1 Bft) S 180 10 min 0,000 mm 394 W/m 5,7 C 7,2 C 9,7 km/h (2 Bft) 100 %
01.11.2017 11:00 7,8 C 7,2 C 7,8 C 87 % 1024,7 hPa 0,0 l/m 4,8 km/h (1 Bft) S-SW 202 10 min 0,076 mm 392 W/m 5,8 C 7,8 C 8,0 km/h (2 Bft) 100 %
01.11.2017 11:10 8,1 C 7,8 C 8,1 C 86 % 1024,4 hPa 0,0 l/m 6,4 km/h (2 Bft) S 180 10 min 0,000 mm 406 W/m 5,9 C 8,1 C 11,3 km/h (2 Bft) 100 %
01.11.2017 11:20 8,4 C 8,1 C 8,4 C 86 % 1024,3 hPa 0,0 l/m 4,8 km/h (1 Bft) S-SO 157 10 min 0,000 mm 410 W/m 6,2 C 8,4 C 14,5 km/h (3 Bft) 100 %
01.11.2017 11:30 9,0 C 8,4 C 9,0 C 83 % 1024,2 hPa 0,0 l/m 6,4 km/h (2 Bft) S-SW 202 10 min 0,000 mm 411 W/m 6,3 C 9,0 C 14,5 km/h (3 Bft) 100 %
01.11.2017 11:40 9,2 C 9,0 C 9,2 C 80 % 1024,0 hPa 0,0 l/m 6,4 km/h (2 Bft) S-SW 202 10 min 0,000 mm 408 W/m 5,9 C 9,2 C 12,9 km/h (3 Bft) 100 %
01.11.2017 11:50 9,1 C 9,1 C 9,2 C 81 % 1023,9 hPa 0,0 l/m 6,4 km/h (2 Bft) S 180 10 min 0,000 mm 422 W/m 6,0 C 9,1 C 16,1 km/h (3 Bft) 100 %
01.11.2017 12:10 9,4 C 9,1 C 9,4 C 80 % 1023,8 hPa 0,0 l/m 6,9 km/h (2 Bft) SW 221 20 min 0,153 mm 406 W/m 6,1 C 9,0 C 14,5 km/h (3 Bft) 96 %
01.11.2017 12:20 9,6 C 9,4 C 9,6 C 79 % 1023,7 hPa 0,0 l/m 5,9 km/h (2 Bft) S-SW 196 10 min 0,000 mm 220 W/m 6,1 C 9,6 C 16,1 km/h (3 Bft) 98 %
01.11.2017 12:30 9,8 C 9,6 C 9,8 C 79 % 1023,6 hPa 0,0 l/m 5,0 km/h (1 Bft) S-SO 168 0 min 0,000 mm 121 W/m 6,3 C 9,8 C 12,9 km/h (3 Bft) 99 %
01.11.2017 12:40 10,0 C 9,8 C 10,0 C 78 % 1023,5 hPa 0,0 l/m 6,0 km/h (2 Bft) S-SW 197 10 min 0,000 mm 355 W/m 6,3 C 10,0 C 16,1 km/h (3 Bft) 100 %
01.11.2017 12:50 10,1 C 10,0 C 10,1 C 78 % 1023,3 hPa 0,0 l/m 5,2 km/h (1 Bft) S-SW 205 0 min 0,000 mm 125 W/m 6,4 C 10,1 C 9,7 km/h (2 Bft) 100 %
01.11.2017 13:00 10,3 C 10,1 C 10,3 C 76 % 1023,3 hPa 0,0 l/m 6,2 km/h (2 Bft) S 178 0 min 0,127 mm 137 W/m 6,3 C 10,3 C 11,3 km/h (2 Bft) 100 %
01.11.2017 13:10 10,4 C 10,3 C 10,4 C 75 % 1023,1 hPa 0,0 l/m 7,1 km/h (2 Bft) S 181 0 min 0,000 mm 109 W/m 6,2 C 9,9 C 16,1 km/h (3 Bft) 100 %
01.11.2017 13:20 10,7 C 10,4 C 10,7 C 74 % 1023,0 hPa 0,0 l/m 6,7 km/h (2 Bft) S 191 10 min 0,000 mm 172 W/m 6,3 C 10,5 C 14,5 km/h (3 Bft) 100 %
01.11.2017 13:30 10,9 C 10,7 C 10,9 C 73 % 1022,8 hPa 0,0 l/m 7,6 km/h (2 Bft) S-SO 155 0 min 0,000 mm 142 W/m 6,3 C 10,1 C 16,1 km/h (3 Bft) 100 %
01.11.2017 13:40 11,1 C 10,8 C 11,1 C 73 % 1022,8 hPa 0,0 l/m 5,8 km/h (2 Bft) S-SO 166 10 min 0,000 mm 153 W/m 6,4 C 11,1 C 12,9 km/h (3 Bft) 100 %
01.11.2017 13:50 11,3 C 11,1 C 11,3 C 72 % 1022,7 hPa 0,0 l/m 5,9 km/h (2 Bft) W-SW 246 10 min 0,000 mm 218 W/m 6,4 C 11,3 C 11,3 km/h (2 Bft) 100 %
01.11.2017 14:00 11,5 C 11,3 C 11,5 C 72 % 1022,6 hPa 0,0 l/m 5,2 km/h (1 Bft) SW 223 10 min 0,000 mm 214 W/m 6,6 C 11,5 C 14,5 km/h (3 Bft) 100 %
01.11.2017 14:10 11,6 C 11,5 C 11,6 C 71 % 1022,5 hPa 0,0 l/m 7,1 km/h (2 Bft) SW 226 10 min 0,102 mm 301 W/m 6,5 C 11,1 C 12,9 km/h (3 Bft) 100 %
01.11.2017 14:20 11,7 C 11,6 C 11,7 C 69 % 1022,5 hPa 0,0 l/m 4,9 km/h (1 Bft) S 184 10 min 0,000 mm 311 W/m 6,2 C 11,7 C 14,5 km/h (3 Bft) 100 %
01.11.2017 14:30 11,6 C 11,6 C 11,7 C 71 % 1022,5 hPa 0,0 l/m 5,4 km/h (1 Bft) S-SW 196 0 min 0,000 mm 91 W/m 6,5 C 11,6 C 14,5 km/h (3 Bft) 100 %
01.11.2017 14:40 11,7 C 11,6 C 11,7 C 71 % 1022,2 hPa 0,0 l/m 5,0 km/h (1 Bft) SW 224 0 min 0,000 mm 47 W/m 6,6 C 11,7 C 14,5 km/h (3 Bft) 100 %
01.11.2017 14:50 11,5 C 11,5 C 11,7 C 69 % 1022,2 hPa 0,0 l/m 1,9 km/h (1 Bft) S-SO 164 0 min 0,000 mm 44 W/m 6,0 C 11,5 C 8,0 km/h (2 Bft) 91 %
01.11.2017 15:00 11,6 C 11,5 C 11,6 C 70 % 1022,2 hPa 0,0 l/m 3,1 km/h (1 Bft) S 190 0 min 0,102 mm 40 W/m 6,3 C 11,6 C 9,7 km/h (2 Bft) 100 %
01.11.2017 15:10 11,5 C 11,5 C 11,6 C 70 % 1022,1 hPa 0,0 l/m 2,4 km/h (1 Bft) S 169 0 min 0,000 mm 39 W/m 6,2 C 11,5 C 9,7 km/h (2 Bft) 100 %
01.11.2017 15:20 11,4 C 11,4 C 11,5 C 69 % 1022,1 hPa 0,0 l/m 2,1 km/h (1 Bft) S-SW 202 0 min 0,000 mm 37 W/m 5,9 C 11,4 C 8,0 km/h (2 Bft) 100 %
01.11.2017 15:30 11,3 C 11,3 C 11,4 C 70 % 1021,9 hPa 0,0 l/m 0,8 km/h (0 Bft) S 188 0 min 0,000 mm 35 W/m 6,0 C 11,3 C 6,4 km/h (2 Bft) 100 %
01.11.2017 15:40 11,3 C 11,3 C 11,3 C 69 % 1021,9 hPa 0,0 l/m 2,3 km/h (1 Bft) S-SO 167 0 min 0,000 mm 33 W/m 5,8 C 11,3 C 9,7 km/h (2 Bft) 100 %
01.11.2017 15:50 11,2 C 11,2 C 11,3 C 69 % 1021,8 hPa 0,0 l/m 2,5 km/h (1 Bft) S-SO 162 0 min 0,000 mm 30 W/m 5,7 C 11,2 C 8,0 km/h (2 Bft) 100 %
01.11.2017 16:00 11,2 C 11,1 C 11,2 C 69 % 1021,8 hPa 0,0 l/m 0,0 km/h (0 Bft) S 181 0 min 0,000 mm 28 W/m 5,7 C 11,2 C 1,6 km/h (1 Bft) 100 %
01.11.2017 16:10 11,1 C 11,1 C 11,2 C 70 % 1021,8 hPa 0,0 l/m 0,1 km/h (0 Bft) S-SW 195 0 min 0,025 mm 21 W/m 5,8 C 11,1 C 3,2 km/h (1 Bft) 100 %
01.11.2017 16:20 10,9 C 10,8 C 11,1 C 71 % 1021,8 hPa 0,0 l/m 0,0 km/h (0 Bft) S-SW 193 0 min 0,000 mm 19 W/m 5,9 C 10,9 C 1,6 km/h (1 Bft) 100 %
01.11.2017 16:30 10,7 C 10,7 C 10,9 C 71 % 1021,6 hPa 0,0 l/m 0,0 km/h (0 Bft) S-SW 193 0 min 0,000 mm 11 W/m 5,7 C 10,7 C 0,0 km/h (0 Bft) 100 %
01.11.2017 16:40 10,4 C 10,4 C 10,7 C 72 % 1021,6 hPa 0,0 l/m 0,0 km/h (0 Bft) S-SW 193 0 min 0,000 mm 9 W/m 5,6 C 10,4 C 0,0 km/h (0 Bft) 100 %
01.11.2017 16:50 10,2 C 10,2 C 10,4 C 72 % 1021,4 hPa 0,0 l/m 0,0 km/h (0 Bft) S-SW 193 0 min 0,000 mm 5 W/m 5,4 C 10,2 C 1,6 km/h (1 Bft) 91 %
01.11.2017 17:00 9,9 C 9,9 C 10,2 C 73 % 1021,4 hPa 0,0 l/m 0,0 km/h (0 Bft) S-SW 192 0 min 0,000 mm 0 W/m 5,3 C 9,9 C 0,0 km/h (0 Bft) 100 %
01.11.2017 17:10 9,8 C 9,8 C 9,9 C 72 % 1021,3 hPa 0,0 l/m 1,0 km/h (0 Bft) S 188 0 min 0,000 mm 0 W/m 5,0 C 9,8 C 4,8 km/h (1 Bft) 100 %
01.11.2017 17:20 9,7 C 9,7 C 9,8 C 72 % 1021,3 hPa 0,0 l/m 0,5 km/h (0 Bft) S 188 0 min 0,000 mm 0 W/m 4,9 C 9,7 C 3,2 km/h (1 Bft) 100 %
01.11.2017 17:30 9,5 C 9,5 C 9,7 C 72 % 1021,2 hPa 0,0 l/m 0,0 km/h (0 Bft) S 188 0 min 0,000 mm 0 W/m 4,7 C 9,5 C 0,0 km/h (0 Bft) 100 %
01.11.2017 17:40 9,4 C 9,4 C 9,5 C 74 % 1021,2 hPa 0,0 l/m 0,0 km/h (0 Bft) S 188 0 min 0,000 mm 0 W/m 5,0 C 9,4 C 0,0 km/h (0 Bft) 100 %
01.11.2017 17:50 9,1 C 9,1 C 9,4 C 75 % 1021,1 hPa 0,0 l/m 0,0 km/h (0 Bft) S 188 0 min 0,000 mm 0 W/m 4,9 C 9,1 C 0,0 km/h (0 Bft) 100 %
01.11.2017 18:00 8,7 C 8,7 C 9,1 C 77 % 1021,1 hPa 0,0 l/m 0,0 km/h (0 Bft) S 188 0 min 0,000 mm 0 W/m 4,9 C 8,7 C 0,0 km/h (0 Bft) 100 %
01.11.2017 18:10 8,3 C 8,3 C 8,7 C 78 % 1021,1 hPa 0,0 l/m 0,0 km/h (0 Bft) S 188 0 min 0,000 mm 0 W/m 4,7 C 8,3 C 0,0 km/h (0 Bft) 100 %
01.11.2017 18:20 8,0 C 8,0 C 8,3 C 81 % 1021,2 hPa 0,0 l/m 0,0 km/h (0 Bft) S 188 0 min 0,000 mm 0 W/m 4,9 C 8,0 C 0,0 km/h (0 Bft) 100 %
01.11.2017 18:30 7,7 C 7,7 C 8,0 C 81 % 1021,4 hPa 0,0 l/m 0,0 km/h (0 Bft) S 188 0 min 0,000 mm 0 W/m 4,7 C 7,7 C 0,0 km/h (0 Bft) 100 %
01.11.2017 18:40 7,4 C 7,4 C 7,7 C 83 % 1021,3 hPa 0,0 l/m 0,0 km/h (0 Bft) S 188 0 min 0,000 mm 0 W/m 4,7 C 7,4 C 0,0 km/h (0 Bft) 100 %
01.11.2017 18:50 7,2 C 7,2 C 7,4 C 83 % 1021,3 hPa 0,0 l/m 0,0 km/h (0 Bft) S 188 0 min 0,000 mm 0 W/m 4,5 C 7,2 C 0,0 km/h (0 Bft) 100 %
01.11.2017 19:00 6,9 C 6,9 C 7,2 C 84 % 1021,4 hPa 0,0 l/m 0,0 km/h (0 Bft) S 188 0 min 0,000 mm 0 W/m 4,4 C 6,9 C 0,0 km/h (0 Bft) 100 %
01.11.2017 19:10 6,8 C 6,8 C 6,9 C 85 % 1021,2 hPa 0,0 l/m 0,0 km/h (0 Bft) S 188 0 min 0,000 mm 0 W/m 4,5 C 6,8 C 0,0 km/h (0 Bft) 100 %
01.11.2017 19:20 6,6 C 6,6 C 6,8 C 86 % 1021,2 hPa 0,0 l/m 0,0 km/h (0 Bft) S 188 0 min 0,000 mm 0 W/m 4,4 C 6,6 C 0,0 km/h (0 Bft) 100 %
01.11.2017 19:30 6,5 C 6,5 C 6,6 C 86 % 1021,2 hPa 0,0 l/m 0,0 km/h (0 Bft) S 188 0 min 0,000 mm 0 W/m 4,3 C 6,5 C 0,0 km/h (0 Bft) 100 %
01.11.2017 19:40 6,4 C 6,4 C 6,5 C 87 % 1021,1 hPa 0,0 l/m 0,0 km/h (0 Bft) S 188 0 min 0,000 mm 0 W/m 4,4 C 6,4 C 0,0 km/h (0 Bft) 100 %
01.11.2017 19:50 6,2 C 6,2 C 6,4 C 87 % 1020,9 hPa 0,0 l/m 0,0 km/h (0 Bft) S 188 0 min 0,000 mm 0 W/m 4,2 C 6,2 C 0,0 km/h (0 Bft) 100 %
01.11.2017 20:00 6,1 C 6,1 C 6,2 C 88 % 1020,7 hPa 0,0 l/m 0,0 km/h (0 Bft) S 188 0 min 0,000 mm 0 W/m 4,3 C 6,1 C 0,0 km/h (0 Bft) 100 %
01.11.2017 20:10 5,8 C 5,8 C 6,1 C 88 % 1020,5 hPa 0,0 l/m 0,0 km/h (0 Bft) S 188 0 min 0,000 mm 0 W/m 4,0 C 5,8 C 0,0 km/h (0 Bft) 100 %
01.11.2017 20:20 5,6 C 5,6 C 5,8 C 88 % 1020,5 hPa 0,0 l/m 0,0 km/h (0 Bft) S 188 0 min 0,000 mm 0 W/m 3,8 C 5,6 C 0,0 km/h (0 Bft) 95 %
01.11.2017 20:30 5,3 C 5,3 C 5,6 C 89 % 1020,4 hPa 0,0 l/m 0,0 km/h (0 Bft) S-SW 192 0 min 0,000 mm 0 W/m 3,6 C 5,3 C 0,0 km/h (0 Bft) 97 %
01.11.2017 20:40 5,2 C 5,2 C 5,3 C 89 % 1020,4 hPa 0,0 l/m 0,0 km/h (0 Bft) S-SW 195 0 min 0,000 mm 0 W/m 3,5 C 5,2 C 0,0 km/h (0 Bft) 100 %
01.11.2017 20:50 5,1 C 5,1 C 5,2 C 90 % 1020,3 hPa 0,0 l/m 0,0 km/h (0 Bft) S-SW 195 0 min 0,000 mm 0 W/m 3,6 C 5,1 C 0,0 km/h (0 Bft) 100 %
01.11.2017 21:00 5,0 C 5,0 C 5,1 C 90 % 1020,3 hPa 0,0 l/m 0,0 km/h (0 Bft) S-SW 195 0 min 0,000 mm 0 W/m 3,5 C 5,0 C 0,0 km/h (0 Bft) 100 %
01.11.2017 21:10 4,9 C 4,9 C 5,0 C 90 % 1020,3 hPa 0,0 l/m 0,0 km/h (0 Bft) N 0 0 min 0,000 mm 0 W/m 3,4 C 4,9 C 0,0 km/h (0 Bft) 100 %
01.11.2017 21:20 4,7 C 4,7 C 4,9 C 90 % 1020,2 hPa 0,0 l/m 0,0 km/h (0 Bft) N 0 0 min 0,000 mm 0 W/m 3,2 C 4,7 C 0,0 km/h (0 Bft) 100 %
01.11.2017 21:30 4,7 C 4,7 C 4,7 C 90 % 1020,1 hPa 0,0 l/m 0,0 km/h (0 Bft) N 0 0 min 0,000 mm 0 W/m 3,2 C 4,7 C 0,0 km/h (0 Bft) 100 %
01.11.2017 21:40 4,6 C 4,6 C 4,7 C 90 % 1020,0 hPa 0,0 l/m 0,0 km/h (0 Bft) N 0 0 min 0,000 mm 0 W/m 3,1 C 4,6 C 0,0 km/h (0 Bft) 100 %
01.11.2017 21:50 4,5 C 4,5 C 4,6 C 90 % 1020,0 hPa 0,0 l/m 0,0 km/h (0 Bft) N 0 0 min 0,000 mm 0 W/m 3,0 C 4,5 C 0,0 km/h (0 Bft) 100 %
01.11.2017 22:00 4,4 C 4,4 C 4,5 C 90 % 1020,0 hPa 0,0 l/m 0,0 km/h (0 Bft) N 0 0 min 0,000 mm 0 W/m 2,9 C 4,4 C 0,0 km/h (0 Bft) 90 %
01.11.2017 22:10 4,3 C 4,3 C 4,4 C 90 % 1019,8 hPa 0,0 l/m 0,0 km/h (0 Bft) N 0 0 min 0,000 mm 0 W/m 2,8 C 4,3 C 0,0 km/h (0 Bft) 99 %
01.11.2017 22:20 4,3 C 4,3 C 4,4 C 90 % 1019,8 hPa 0,0 l/m 0,0 km/h (0 Bft) N 0 0 min 0,000 mm 0 W/m 2,8 C 4,3 C 0,0 km/h (0 Bft) 100 %
01.11.2017 22:30 4,2 C 4,2 C 4,3 C 90 % 1019,7 hPa 0,0 l/m 0,0 km/h (0 Bft) N 0 0 min 0,000 mm 0 W/m 2,7 C 4,2 C 0,0 km/h (0 Bft) 97 %
01.11.2017 22:40 4,1 C 4,1 C 4,2 C 90 % 1019,6 hPa 0,0 l/m 0,0 km/h (0 Bft) N 0 0 min 0,000 mm 0 W/m 2,6 C 4,1 C 0,0 km/h (0 Bft) 98 %
01.11.2017 22:50 4,1 C 4,1 C 4,1 C 90 % 1019,5 hPa 0,0 l/m 0,0 km/h (0 Bft) N 0 0 min 0,000 mm 0 W/m 2,6 C 4,1 C 0,0 km/h (0 Bft) 98 %
01.11.2017 23:00 4,1 C 4,1 C 4,1 C 90 % 1019,5 hPa 0,0 l/m 0,0 km/h (0 Bft) N 0 0 min 0,000 mm 0 W/m 2,6 C 4,1 C 0,0 km/h (0 Bft) 98 %
01.11.2017 23:10 4,1 C 4,1 C 4,1 C 90 % 1019,4 hPa 0,0 l/m 0,0 km/h (0 Bft) N 0 0 min 0,000 mm 0 W/m 2,6 C 4,1 C 0,0 km/h (0 Bft) 98 %
01.11.2017 23:20 4,1 C 4,1 C 4,1 C 90 % 1019,2 hPa 0,0 l/m 0,0 km/h (0 Bft) N 0 0 min 0,000 mm 0 W/m 2,6 C 4,1 C 0,0 km/h (0 Bft) 98 %
01.11.2017 23:30 4,1 C 4,1 C 4,1 C 90 % 1019,1 hPa 0,0 l/m 0,0 km/h (0 Bft) N 0 0 min 0,000 mm 0 W/m 2,6 C 4,1 C 0,0 km/h (0 Bft) 97 %
01.11.2017 23:40 4,0 C 4,0 C 4,1 C 90 % 1019,0 hPa 0,0 l/m 0,0 km/h (0 Bft) N 0 0 min 0,000 mm 0 W/m 2,5 C 4,0 C 0,0 km/h (0 Bft) 97 %
01.11.2017 23:50 4,0 C 4,0 C 4,0 C 90 % 1018,9 hPa 0,0 l/m 0,0 km/h (0 Bft) N 0 0 min 0,000 mm 0 W/m 2,5 C 4,0 C 0,0 km/h (0 Bft) 97 %
_ Min-Zeit 23:40 23:40 23:50 14:20 23:50 - 02:30 - - - - - 23:40 23:40 02:40 00:10
Minimum _ 4,0 C 4,0 C 4,0 C 69 % 1018,9 hPa - 0,0 km/h (0 Bft) - - - - - 2,5 C 4,0 C 0,0 km/h (0 Bft) 79 %
_ Max-Zeit 14:20 14:20 14:20 09:40 00:00 07:10 13:30 - - 12:10 12:10 11:50 14:00 14:20 11:50 00:40
Maximum _ 11,7 C 11,6 C 11,7 C 91 % 1025,5 hPa 0,2 l/m 7,6 km/h
S-SO (2 Bft)
- - 20 min 0,153 mm 422 W/m 6,6 C 11,7 C 16,1 km/h
S-SW (3 Bft)
100 %
Durchschnitt _ 6,8 C 6,8 C 6,9 C 85 % 1023,0 hPa #0,2 l/m 2,1 km/h (1 Bft) S-SO - #3:00 h #0,635 mm 141 W/m 4,4 C 6,8 C 5,2 km/h (1 Bft) 99 %
PRIVATE WETTERSTATION BILLIGHEIM-ALLFELD - www.neckar-odenwald-wetter.de - Holger Sonntag